Snowfall_Accumulation
0.0 0.0 0.0 0.0 0.0 0.0 0.0 0.0 0.0 0.0 0.0 0.0 0.0 0.0 0.0 0.0 0.0 0.0 0.0 0.0 0.0 0.0 0.0 0.0 0.0 0.0 0.0
0.0 0.0 0.0 0.0 0.0 0.0 0.0 0.0 0.0 0.0 0.0 0.0 0.0 0.0 0.0 0.0 0.0 0.0 0.0 0.0 0.0 0.0 0.0 0.0 0.0 0.0 0.0
0.0 0.0 0.0 0.0 0.0 0.0 0.0 0.0 0.0 0.0 0.0 0.0 0.0 0.0 0.0 0.0 0.0 0.0 0.0 0.0 0.0 0.0 0.0 0.0 0.0 0.0 0.0
0.0 1.1 0.2 0.1 0.2 0.1 0.0 0.0 0.0 0.0 0.0 0.0 0.0 0.0 0.0 0.0 0.0 0.0 0.0 0.0 0.0 0.0 0.0 0.0 0.0 0.0 0.0
2.3 1.3 1.4 0.0 0.0 0.0 0.0 0.0 0.1 0.0 0.0 0.0 0.0 0.0 0.0 0.0 0.0 0.0 0.0 0.0 0.0 0.0 0.0 0.0 0.0 0.0 0.0
4.6 0.7 0.0 0.0 0.0 0.1 1.2 1.4 1.5 0.0 0.1 0.1 0.0 0.0 0.0 0.0 0.0 0.0 0.0 0.0 0.0 0.0 0.0 0.0 0.0 0.0 0.0
0.3 0.1 0.2 0.0 2.0 2.8 1.4 2.5 2.0 0.0 0.1 0.4 0.0 0.0 0.0 0.0 0.0 0.0 0.0 0.0 0.0 0.0 0.0 0.0 0.0 0.0 0.0
0.0 0.1 0.6 0.2 0.4 1.0 2.8 1.8 0.3 0.0 0.1 2.1 0.0 0.1 0.0 0.0 0.0 0.0 0.0 0.0 0.0 0.0 0.0 0.0 0.0 0.0 0.0
0.2 0.0 0.0 0.0 0.0 2.1 2.8 3.6 2.3 0.2 0.0 0.5 0.2 0.2 0.1 0.0 0.0 0.0 0.0 0.0 0.0 0.0 0.0 0.0 0.0 0.0 0.0
0.0 0.0 0.0 0.0 0.0 0.2 5.2 12.8 5.5 4.3 0.0 4.5 1.9 1.2 5.7 1.5 1.5 1.0 0.0 0.0 0.0 0.0 0.0 0.0 0.0 0.1 0.3
0.0 0.0 0.0 0.0 0.1 0.3 2.0 9.9 14.1 8.5 0.1 7.0 9.8 1.3 7.6 4.9 3.5 3.3 2.2 0.1 0.2 0.0 0.0 0.1 0.1 0.2 1.6
0.2 0.2 0.2 0.3 0.2 0.2 0.3 1.9 3.8 9.6 3.0 4.3 16.5 9.3 11.7 8.1 5.1 5.8 2.8 3.1 2.4 1.4 0.6 0.4 0.3 0.3 0.2
1.4 0.6 0.7 1.3 2.0 2.8 4.7 4.9 6.0 7.2 8.2 7.4 11.5 10.9 10.9 10.3 8.5 6.0 7.9 6.2 4.2 6.2 3.8 2.0 2.1 1.2 1.6
4.0 2.7 3.5 5.2 6.2 7.4 11.7 10.3 11.6 9.7 7.7 7.0 8.8 10.1 8.8 5.1 9.2 7.8 6.6 12.6 9.0 8.0 7.5 3.3 1.3 0.6 0.4
4.2 4.5 4.5 7.2 8.2 9.6 13.5 13.1 12.1 9.8 7.8 5.6 4.6 4.5 4.4 6.3 7.2 6.8 8.9 8.4 8.9 12.0 9.7 5.4 4.5 1.2 0.7
6.5 7.2 9.7 10.6 13.1 13.4 13.2 12.1 10.9 8.1 7.2 5.6 5.1 3.8 3.6 3.0 5.1 10.1 8.0 8.8 9.8 10.5 9.2 5.0 5.5 3.0 0.1
10.7 11.5 11.9 12.8 13.4 13.8 11.2 8.7 6.6 4.9 2.8 2.0 3.6 5.2 5.5 3.6 3.4 4.1 10.0 8.5 6.8 7.1 6.6 4.4 5.3 3.8 0.4